Jefferson, NC

1:15 AM EST on December 12, 2019 (GMT -0500)
Ashe County

Weather History for KGEV - October, 2019

Change the Weather History Date:

Thursday, October 24, 2019

  Actual Average Record
Temperature  
Mean Temperature 46 °F -  
Max Temperature 58 °F 62 °F 78 °F (2001)
Min Temperature 33 °F 36 °F 20 °F (1969)
Degree Days  
Heating Degree Days 20    
Moisture  
Dew Point 34 °F    
Average Humidity 67    
Maximum Humidity 94    
Minimum Humidity 39    
Precipitation  
Precipitation 0.00 in - - ()
Sea Level Pressure  
Sea Level Pressure 30.30 in    
Wind  
Wind Speed 1 mph ()    
Max Wind Speed 7 mph    
Max Gust Speed -    
Visibility 10.0 miles    
Events      
Averages and records for this station are not official NWS values.
T = Trace of Precipitation, MM = Missing Value Source: Averaged Metar Reports

Daily Weather History Graph

Daily Weather History Graph

Search for Another Location

Airport or City:

Astronomy

Oct. 24, 2019 Rise Set
Actual Time 7:40 AM EDT 6:38 PM EDT
Civil Twilight 7:14 AM EDT 7:04 PM EDT
Nautical Twilight 6:44 AM EDT 7:34 PM EDT
Astronomical Twilight 6:14 AM EDT 8:04 PM EDT
Moon 3:19 AM EDT (10/24) 4:56 PM EDT (10/24)
Length of Visible Light 11h 49m
Length of Day
10h 57m
Waning Crescent, 17% of the Moon is Illuminated
Oct 24
Waning Crescent
Oct 27
New
Nov 4
First Quarter
Nov 12
Full
Nov 19
Last Quarter

Hourly Weather History & Observations

Time (EDT) Temp. Windchill Dew Point Humidity Pressure Visibility Wind Dir Wind Speed Gust Speed Precip Events Conditions
12:15 AM 41.0 °F - 31.8 °F 70% 30.27 in 10.0 mi Calm Calm - N/A   Clear
12:35 AM 40.6 °F - 31.6 °F 70% 30.27 in 10.0 mi Calm Calm - N/A   Clear
12:55 AM 39.2 °F - 32.0 °F 75% 30.27 in 10.0 mi Calm Calm - N/A   Clear
1:15 AM 39.0 °F - 32.0 °F 76% 30.27 in 10.0 mi Calm Calm - N/A   Clear
1:35 AM 38.8 °F - 31.8 °F 76% 30.27 in 10.0 mi Calm Calm - N/A   Clear
1:55 AM 38.3 °F - 32.0 °F 78% 30.27 in 10.0 mi Calm Calm - N/A   Clear
2:15 AM 38.1 °F - 31.6 °F 77% 30.27 in 10.0 mi Calm Calm - N/A   Clear
2:35 AM 34.9 °F - 32.5 °F 91% 30.27 in 10.0 mi Calm Calm - N/A   Clear
2:55 AM 36.3 °F - 32.5 °F 86% 30.27 in 10.0 mi Calm Calm - N/A   Clear
3:15 AM 37.2 °F - 32.0 °F 81% 30.27 in 10.0 mi Calm Calm - N/A   Clear
3:35 AM 36.0 °F 33.3 °F 32.5 °F 87% 30.26 in 10.0 mi SSW 3.5 mph - N/A   Clear
3:55 AM 36.7 °F - 32.4 °F 84% 30.26 in 10.0 mi Calm Calm - N/A   Clear
4:15 AM 36.1 °F - 32.2 °F 86% 30.26 in 10.0 mi Calm Calm - N/A   Clear
4:35 AM 33.8 °F 30.8 °F 32.0 °F 93% 30.26 in 10.0 mi NW 3.5 mph - N/A   Clear
4:55 AM 34.3 °F - 32.7 °F 94% 30.27 in 10.0 mi Calm Calm - N/A   Clear
5:15 AM 35.1 °F - 31.8 °F 88% 30.27 in 10.0 mi Calm Calm - N/A   Clear
5:35 AM 36.5 °F - 32.0 °F 84% 30.27 in 10.0 mi Calm Calm - N/A   Clear
5:55 AM 35.8 °F - 32.0 °F 86% 30.28 in 10.0 mi Calm Calm - N/A   Clear
6:15 AM 35.4 °F - 32.0 °F 87% 30.28 in 10.0 mi Calm Calm - N/A   Clear
6:55 AM 35.6 °F 32.8 °F 32.0 °F 87% 30.29 in 10.0 mi SW 3.5 mph - N/A   Clear
7:15 AM 35.1 °F 32.2 °F 32.7 °F 91% 30.29 in 10.0 mi South 3.5 mph - N/A   Clear
7:35 AM 36.7 °F - 32.2 °F 84% 30.30 in 10.0 mi Calm Calm - N/A   Clear
7:55 AM 35.2 °F - 32.0 °F 88% 30.31 in 10.0 mi Calm Calm - N/A   Clear
8:15 AM 35.1 °F - 32.0 °F 89% 30.31 in 10.0 mi Calm Calm - N/A   Clear
8:55 AM 35.6 °F - 33.3 °F 91% 30.32 in 10.0 mi Calm Calm - N/A   Clear
9:35 AM 41.4 °F - 37.0 °F 85% 30.33 in 10.0 mi Calm Calm - N/A   Clear
9:55 AM 43.0 °F - 38.5 °F 84% 30.34 in 10.0 mi Calm Calm - N/A   Clear
10:15 AM 46.0 °F - 39.7 °F 79% 30.34 in 10.0 mi Calm Calm - N/A   Clear
10:35 AM 49.8 °F - 39.0 °F 66% 30.35 in 10.0 mi Calm Calm - N/A   Clear
10:55 AM 52.0 °F - 37.2 °F 57% 30.35 in 10.0 mi SSE 4.6 mph - N/A   Clear
11:15 AM 53.6 °F - 38.5 °F 57% 30.34 in 10.0 mi ESE 3.5 mph - N/A   Clear
11:55 AM 55.8 °F - 34.7 °F 45% 30.34 in 10.0 mi SE 5.8 mph - N/A   Clear
12:15 PM 57.6 °F - 34.5 °F 42% 30.34 in 10.0 mi ESE 6.9 mph - N/A   Clear
12:35 PM 57.2 °F - 32.2 °F 39% 30.33 in 10.0 mi SSE 5.8 mph - N/A   Clear
12:55 PM 57.4 °F - 32.9 °F 40% 30.32 in 10.0 mi SSE 6.9 mph - N/A   Clear
1:15 PM 57.9 °F - 34.3 °F 41% 30.31 in 10.0 mi SE 5.8 mph - N/A   Clear
1:35 PM 57.4 °F - 33.8 °F 41% 30.31 in 10.0 mi ESE 6.9 mph - N/A   Clear
1:55 PM 58.1 °F - 34.3 °F 41% 30.30 in 10.0 mi ESE 5.8 mph - N/A   Clear
2:15 PM 57.7 °F - 34.2 °F 41% 30.29 in 10.0 mi ESE 5.8 mph - N/A   Clear
2:55 PM 58.5 °F - 36.1 °F 43% 30.29 in 10.0 mi SE 5.8 mph - N/A   Clear
3:15 PM 57.7 °F - 35.4 °F 43% 30.28 in 10.0 mi ESE 5.8 mph - N/A   Clear
3:35 PM 57.6 °F - 34.9 °F 43% 30.28 in 10.0 mi Calm Calm - N/A   Clear
3:55 PM 57.9 °F - 36.0 °F 44% 30.28 in 10.0 mi ESE 6.9 mph - N/A   Clear
4:15 PM 56.8 °F - 35.2 °F 44% 30.28 in 10.0 mi ESE 4.6 mph - N/A   Clear
4:35 PM 56.7 °F - 36.1 °F 46% 30.28 in 10.0 mi Calm Calm - N/A   Clear
5:55 PM 53.8 °F - 36.1 °F 51% 30.28 in 10.0 mi SE 3.5 mph - N/A   Clear
6:15 PM 53.1 °F - 35.6 °F 52% 30.29 in 10.0 mi SSE 3.5 mph - N/A   Clear
6:35 PM 51.8 °F - 36.0 °F 55% 30.29 in 10.0 mi SSE 3.5 mph - N/A   Clear
6:55 PM 51.4 °F - 34.7 °F 53% 30.30 in 10.0 mi Calm Calm - N/A   Clear
7:15 PM 50.4 °F - 34.7 °F 55% 30.30 in 10.0 mi Calm Calm - N/A   Clear
7:35 PM 50.2 °F - 34.9 °F 56% 30.31 in 10.0 mi Calm Calm - N/A   Clear
7:55 PM 49.6 °F - 34.7 °F 56% 30.31 in 10.0 mi Calm Calm - N/A   Clear
8:15 PM 48.6 °F - 34.9 °F 59% 30.32 in 10.0 mi Calm Calm - N/A   Clear
8:35 PM 48.0 °F - 35.1 °F 61% 30.32 in 10.0 mi Calm Calm - N/A   Clear
8:55 PM 47.8 °F - 35.2 °F 62% 30.33 in 10.0 mi Calm Calm - N/A   Clear
9:15 PM 47.1 °F - 35.6 °F 64% 30.33 in 10.0 mi Calm Calm - N/A   Clear
9:35 PM 45.7 °F - 35.6 °F 68% 30.33 in 10.0 mi Calm Calm - N/A   Clear
9:55 PM 46.4 °F - 35.6 °F 66% 30.33 in 10.0 mi Calm Calm - N/A   Clear
10:15 PM 45.5 °F - 36.1 °F 70% 30.35 in 10.0 mi Calm Calm - N/A   Clear
10:55 PM 46.8 °F - 35.1 °F 64% 30.35 in 10.0 mi Calm Calm - N/A   Clear
11:15 PM 43.3 °F - 36.5 °F 77% 30.35 in 10.0 mi Calm Calm - N/A   Clear
11:35 PM 43.2 °F - 36.5 °F 77% 30.34 in 10.0 mi Calm Calm - N/A   Clear